Time,TemperatureF,DewpointF,PressureIn,WindDirection,WindDirectionDegrees,WindSpeedMPH,WindSpeedGustMPH,Humidity,HourlyPrecipIn,Conditions,Clouds,dailyrainin,SoftwareType,DateUTC
2013-02-02 00:00:00,35.2,24.8,30.32,North,349,0.0,0.0,66,0.00,,---,0.00,VWS V14.00,2013-02-02 08:00:00,
2013-02-02 00:09:00,35.3,24.5,30.32,North,350,0.0,0.0,64,0.00,,---,0.00,VWS V14.00,2013-02-02 08:09:00,
2013-02-02 00:14:00,35.1,24.7,30.32,North,349,0.0,0.0,66,0.00,,---,0.00,VWS V14.00,2013-02-02 08:14:00,
2013-02-02 00:19:00,35.0,24.6,30.32,North,349,0.0,0.0,66,0.00,,---,0.00,VWS V14.00,2013-02-02 08:19:00,
2013-02-02 00:24:00,34.4,24.4,30.31,North,350,0.0,0.0,66,0.00,,---,0.00,VWS V14.00,2013-02-02 08:24:00,
2013-02-02 00:29:00,34.0,24.4,30.32,North,350,0.0,0.0,68,0.00,,---,0.00,VWS V14.00,2013-02-02 08:29:00,
2013-02-02 00:34:00,34.0,24.7,30.32,North,350,0.0,0.0,68,0.00,,---,0.00,VWS V14.00,2013-02-02 08:34:00,
2013-02-02 00:39:00,34.4,24.8,30.31,North,350,0.0,0.0,68,0.00,,---,0.00,VWS V14.00,2013-02-02 08:39:00,
2013-02-02 00:44:00,34.1,24.5,30.31,North,350,0.0,0.0,68,0.00,,---,0.00,VWS V14.00,2013-02-02 08:44:00,
2013-02-02 00:49:00,33.6,24.7,30.31,North,350,0.0,0.0,70,0.00,,---,0.00,VWS V14.00,2013-02-02 08:49:00,
2013-02-02 00:54:00,33.4,24.9,30.32,North,350,0.0,0.0,70,0.00,,---,0.00,VWS V14.00,2013-02-02 08:54:00,
2013-02-02 00:59:00,33.7,24.8,30.32,North,350,0.0,0.0,70,0.00,,---,0.00,VWS V14.00,2013-02-02 08:59:00,
2013-02-02 01:04:00,33.9,25.0,30.32,North,350,0.0,0.0,70,0.00,,---,0.00,VWS V14.00,2013-02-02 09:04:00,
2013-02-02 01:09:00,34.7,25.1,30.32,North,349,0.0,0.0,68,0.00,,---,0.00,VWS V14.00,2013-02-02 09:09:00,
2013-02-02 01:14:00,35.3,24.9,30.32,North,350,0.0,0.0,66,0.00,,---,0.00,VWS V14.00,2013-02-02 09:14:00,
2013-02-02 01:19:00,35.8,23.9,30.32,North,350,0.0,0.0,62,0.00,,---,0.00,VWS V14.00,2013-02-02 09:19:00,
2013-02-02 01:24:00,36.5,23.8,30.32,North,349,0.0,0.0,60,0.00,,---,0.00,VWS V14.00,2013-02-02 09:24:00,
2013-02-02 01:29:00,36.6,23.8,30.32,North,349,0.0,0.0,60,0.00,,---,0.00,VWS V14.00,2013-02-02 09:29:00,
2013-02-02 01:34:00,36.4,23.7,30.32,North,349,0.0,0.0,60,0.00,,---,0.00,VWS V14.00,2013-02-02 09:34:00,
2013-02-02 01:39:00,36.4,23.7,30.32,North,350,0.0,0.0,60,0.00,,---,0.00,VWS V14.00,2013-02-02 09:39:00,
2013-02-02 01:44:00,35.3,23.8,30.32,North,350,0.0,0.0,62,0.00,,---,0.00,VWS V14.00,2013-02-02 09:44:00,
2013-02-02 01:49:00,34.3,24.0,30.32,North,349,0.0,0.0,66,0.00,,---,0.00,VWS V14.00,2013-02-02 09:49:00,
2013-02-02 01:54:00,34.0,24.0,30.32,North,350,0.0,0.0,66,0.00,,---,0.00,VWS V14.00,2013-02-02 09:54:00,
2013-02-02 01:59:00,33.9,24.3,30.33,North,350,0.0,0.0,68,0.00,,---,0.00,VWS V14.00,2013-02-02 09:59:00,
2013-02-02 02:04:00,34.4,24.4,30.33,North,349,0.0,0.0,66,0.00,,---,0.00,VWS V14.00,2013-02-02 10:04:00,
2013-02-02 02:09:00,34.4,24.0,30.33,North,350,0.0,0.0,66,0.00,,---,0.00,VWS V14.00,2013-02-02 10:09:00,
2013-02-02 02:14:00,34.5,24.1,30.33,North,350,0.0,0.0,66,0.00,,---,0.00,VWS V14.00,2013-02-02 10:14:00,
2013-02-02 02:19:00,34.6,24.2,30.33,North,350,0.0,0.0,66,0.00,,---,0.00,VWS V14.00,2013-02-02 10:19:00,
2013-02-02 02:24:00,34.8,24.1,30.33,North,350,0.0,0.0,64,0.00,,---,0.00,VWS V14.00,2013-02-02 10:24:00,
2013-02-02 02:29:00,34.6,24.2,30.33,North,350,0.0,0.0,66,0.00,,---,0.00,VWS V14.00,2013-02-02 10:29:00,
2013-02-02 02:34:00,34.0,24.4,30.33,North,350,0.0,0.0,68,0.00,,---,0.00,VWS V14.00,2013-02-02 10:34:00,
2013-02-02 02:39:00,33.3,24.1,30.33,North,349,0.0,0.0,68,0.00,,---,0.00,VWS V14.00,2013-02-02 10:39:00,
2013-02-02 02:44:00,33.2,24.3,30.33,North,349,0.0,0.0,70,0.00,,---,0.00,VWS V14.00,2013-02-02 10:44:00,
2013-02-02 02:49:00,33.3,24.4,30.32,North,350,0.0,0.0,70,0.00,,---,0.00,VWS V14.00,2013-02-02 10:49:00,
2013-02-02 02:54:00,33.4,24.2,30.33,North,350,0.0,0.0,68,0.00,,---,0.00,VWS V14.00,2013-02-02 10:54:00,
2013-02-02 02:59:00,33.1,23.9,30.32,North,350,0.0,0.0,68,0.00,,---,0.00,VWS V14.00,2013-02-02 10:59:00,
2013-02-02 03:04:00,33.2,24.0,30.32,North,349,0.0,0.0,68,0.00,,---,0.00,VWS V14.00,2013-02-02 11:04:00,
2013-02-02 03:09:00,33.3,24.1,30.32,North,350,0.0,0.0,68,0.00,,---,0.00,VWS V14.00,2013-02-02 11:09:00,
2013-02-02 03:14:00,33.2,24.0,30.32,North,349,0.0,0.0,68,0.00,,---,0.00,VWS V14.00,2013-02-02 11:14:00,
2013-02-02 03:19:00,33.3,23.7,30.32,North,350,0.0,0.0,68,0.00,,---,0.00,VWS V14.00,2013-02-02 11:19:00,
2013-02-02 03:24:00,33.3,23.7,30.32,North,350,0.0,0.0,68,0.00,,---,0.00,VWS V14.00,2013-02-02 11:24:00,
2013-02-02 03:29:00,33.3,23.7,30.32,North,350,0.0,0.0,68,0.00,,---,0.00,VWS V14.00,2013-02-02 11:29:00,
2013-02-02 03:34:00,33.3,23.7,30.32,North,350,0.0,0.0,68,0.00,,---,0.00,VWS V14.00,2013-02-02 11:34:00,
2013-02-02 03:39:00,33.3,23.7,30.32,North,350,0.0,0.0,68,0.00,,---,0.00,VWS V14.00,2013-02-02 11:39:00,
2013-02-02 03:44:00,33.3,23.7,30.32,North,350,0.0,0.0,68,0.00,,---,0.00,VWS V14.00,2013-02-02 11:44:00,
2013-02-02 03:49:00,33.3,23.7,30.32,North,350,0.0,0.0,68,0.00,,---,0.00,VWS V14.00,2013-02-02 11:49:00,
2013-02-02 03:54:00,33.3,23.7,30.32,North,350,0.0,0.0,68,0.00,,---,0.00,VWS V14.00,2013-02-02 11:54:00,
2013-02-02 03:59:00,33.3,23.7,30.32,North,350,0.0,0.0,68,0.00,,---,0.00,VWS V14.00,2013-02-02 11:59:00,
2013-02-02 04:04:00,33.3,23.7,30.32,North,350,0.0,0.0,68,0.00,,---,0.00,VWS V14.00,2013-02-02 12:04:00,
2013-02-02 04:09:00,33.3,23.7,30.32,North,350,0.0,0.0,68,0.00,,---,0.00,VWS V14.00,2013-02-02 12:09:00,
2013-02-02 04:14:00,33.3,23.7,30.32,North,350,0.0,0.0,68,0.00,,---,0.00,VWS V14.00,2013-02-02 12:14:00,
2013-02-02 04:19:00,33.3,23.7,30.32,North,350,0.0,0.0,68,0.00,,---,0.00,VWS V14.00,2013-02-02 12:19:00,
2013-02-02 04:24:00,33.3,23.7,30.32,North,350,0.0,0.0,68,0.00,,---,0.00,VWS V14.00,2013-02-02 12:24:00,
2013-02-02 04:29:00,33.3,23.7,30.32,North,350,0.0,0.0,68,0.00,,---,0.00,VWS V14.00,2013-02-02 12:29:00,
2013-02-02 04:34:00,33.3,23.7,30.32,North,350,0.0,0.0,68,0.00,,---,0.00,VWS V14.00,2013-02-02 12:34:00,
2013-02-02 04:39:00,33.3,23.7,30.32,North,350,0.0,0.0,68,0.00,,---,0.00,VWS V14.00,2013-02-02 12:39:00,
2013-02-02 04:44:00,33.3,23.7,30.32,North,350,0.0,0.0,68,0.00,,---,0.00,VWS V14.00,2013-02-02 12:44:00,
2013-02-02 04:49:00,33.3,23.7,30.32,North,350,0.0,0.0,68,0.00,,---,0.00,VWS V14.00,2013-02-02 12:49:00,
2013-02-02 04:54:00,33.3,23.7,30.32,North,350,0.0,0.0,68,0.00,,---,0.00,VWS V14.00,2013-02-02 12:54:00,
2013-02-02 05:00:00,33.3,23.7,30.32,North,350,0.0,0.0,68,0.00,,---,0.00,VWS V14.00,2013-02-02 13:00:00,
2013-02-02 05:09:00,33.3,23.7,30.32,North,350,0.0,0.0,68,0.00,,---,0.00,VWS V14.00,2013-02-02 13:09:00,
2013-02-02 05:15:00,33.3,23.7,30.32,North,350,0.0,0.0,68,0.00,,---,0.00,VWS V14.00,2013-02-02 13:15:00,
2013-02-02 05:24:00,33.3,23.7,30.32,North,350,0.0,0.0,68,0.00,,---,0.00,VWS V14.00,2013-02-02 13:24:00,
2013-02-02 05:29:00,33.3,23.7,30.32,North,350,0.0,0.0,68,0.00,,---,0.00,VWS V14.00,2013-02-02 13:29:00,
2013-02-02 05:34:00,33.3,23.7,30.32,North,350,0.0,0.0,68,0.00,,---,0.00,VWS V14.00,2013-02-02 13:34:00,
2013-02-02 05:40:00,33.3,23.7,30.32,North,350,0.0,0.0,68,0.00,,---,0.00,VWS V14.00,2013-02-02 13:40:00,
2013-02-02 05:49:00,33.3,23.7,30.32,North,350,0.0,0.0,68,0.00,,---,0.00,VWS V14.00,2013-02-02 13:49:00,
2013-02-02 05:54:00,33.3,23.7,30.32,North,350,0.0,0.0,68,0.00,,---,0.00,VWS V14.00,2013-02-02 13:54:00,
2013-02-02 05:59:00,33.3,23.7,30.32,North,350,0.0,0.0,68,0.00,,---,0.00,VWS V14.00,2013-02-02 13:59:00,
2013-02-02 06:05:00,33.3,23.7,30.32,North,350,0.0,0.0,68,0.00,,---,0.00,VWS V14.00,2013-02-02 14:05:00,
2013-02-02 06:14:00,33.3,23.7,30.32,North,350,0.0,0.0,68,0.00,,---,0.00,VWS V14.00,2013-02-02 14:14:00,
2013-02-02 06:20:00,33.3,23.7,30.32,North,350,0.0,0.0,68,0.00,,---,0.00,VWS V14.00,2013-02-02 14:20:00,
2013-02-02 06:25:00,33.3,23.7,30.32,North,350,0.0,0.0,68,0.00,,---,0.00,VWS V14.00,2013-02-02 14:25:00,
2013-02-02 06:34:00,33.3,23.7,30.32,North,350,0.0,0.0,68,0.00,,---,0.00,VWS V14.00,2013-02-02 14:34:00,
2013-02-02 06:39:00,33.3,23.7,30.32,North,350,0.0,0.0,68,0.00,,---,0.00,VWS V14.00,2013-02-02 14:39:00,
2013-02-02 06:44:00,33.3,23.7,30.32,North,350,0.0,0.0,68,0.00,,---,0.00,VWS V14.00,2013-02-02 14:44:00,
2013-02-02 06:49:00,33.3,23.7,30.32,North,350,0.0,0.0,68,0.00,,---,0.00,VWS V14.00,2013-02-02 14:49:00,
2013-02-02 06:55:00,33.3,23.7,30.32,North,350,0.0,0.0,68,0.00,,---,0.00,VWS V14.00,2013-02-02 14:55:00,
2013-02-02 07:00:00,33.3,23.7,30.32,North,350,0.0,0.0,68,0.00,,---,0.00,VWS V14.00,2013-02-02 15:00:00,
2013-02-02 07:09:00,33.3,23.7,30.33,North,350,0.0,0.0,68,0.00,,---,0.00,VWS V14.00,2013-02-02 15:09:00,
2013-02-02 07:14:00,33.3,23.7,30.33,North,350,0.0,0.0,68,0.00,,---,0.00,VWS V14.00,2013-02-02 15:14:00,
2013-02-02 07:19:00,33.3,23.7,30.33,North,350,0.0,0.0,68,0.00,,---,0.00,VWS V14.00,2013-02-02 15:19:00,
2013-02-02 07:25:00,33.3,23.7,30.33,North,350,0.0,0.0,68,0.00,,---,0.00,VWS V14.00,2013-02-02 15:25:00,
2013-02-02 07:34:00,33.3,23.7,30.33,North,350,0.0,0.0,68,0.00,,---,0.00,VWS V14.00,2013-02-02 15:34:00,
2013-02-02 07:45:00,33.3,23.7,30.33,North,350,0.0,0.0,68,0.00,,---,0.00,VWS V14.00,2013-02-02 15:45:00,
2013-02-02 07:50:00,33.3,23.7,30.33,North,350,0.0,0.0,68,0.00,,---,0.00,VWS V14.00,2013-02-02 15:50:00,
2013-02-02 07:55:00,33.3,23.7,30.33,North,350,0.0,0.0,68,0.00,,---,0.00,VWS V14.00,2013-02-02 15:55:00,
2013-02-02 08:04:00,33.1,23.2,30.34,North,350,0.0,0.0,66,0.00,,---,0.00,VWS V14.00,2013-02-02 16:04:00,
2013-02-02 08:10:00,32.8,23.6,30.34,North,350,0.0,0.0,68,0.00,,---,0.00,VWS V14.00,2013-02-02 16:10:00,
2013-02-02 08:15:00,32.6,23.4,30.33,North,350,0.0,0.0,68,0.00,,---,0.00,VWS V14.00,2013-02-02 16:15:00,
2013-02-02 08:25:00,33.1,23.9,30.34,North,349,0.0,0.0,68,0.00,,---,0.00,VWS V14.00,2013-02-02 16:25:00,
2013-02-02 08:30:00,33.2,24.3,30.34,North,350,0.0,0.0,70,0.00,,---,0.00,VWS V14.00,2013-02-02 16:30:00,
2013-02-02 08:40:00,33.3,25.1,30.34,North,349,0.0,0.0,72,0.00,,---,0.00,VWS V14.00,2013-02-02 16:40:00,
2013-02-02 08:45:00,33.4,25.2,30.34,North,350,0.0,0.0,72,0.00,,---,0.00,VWS V14.00,2013-02-02 16:45:00,
2013-02-02 08:54:00,33.7,24.8,30.34,North,350,0.0,0.0,70,0.00,,---,0.00,VWS V14.00,2013-02-02 16:54:00,
2013-02-02 09:00:00,34.1,25.2,30.34,North,349,0.0,0.0,70,0.00,,---,0.00,VWS V14.00,2013-02-02 17:00:00,
2013-02-02 09:09:00,34.3,25.7,30.35,North,350,0.0,0.0,70,0.00,,---,0.00,VWS V14.00,2013-02-02 17:09:00,
2013-02-02 09:15:00,34.4,25.8,30.35,North,349,0.0,0.0,70,0.00,,---,0.00,VWS V14.00,2013-02-02 17:15:00,
2013-02-02 09:20:00,34.4,24.8,30.35,North,349,0.0,0.0,68,0.00,,---,0.00,VWS V14.00,2013-02-02 17:20:00,
2013-02-02 09:25:00,34.6,25.3,30.35,North,350,0.0,0.0,68,0.00,,---,0.00,VWS V14.00,2013-02-02 17:25:00,
2013-02-02 09:30:00,34.6,25.3,30.35,North,350,0.0,0.0,68,0.00,,---,0.00,VWS V14.00,2013-02-02 17:30:00,
2013-02-02 09:35:00,34.6,25.3,30.35,North,350,0.0,0.0,68,0.00,,---,0.00,VWS V14.00,2013-02-02 17:35:00,
2013-02-02 09:44:00,34.8,25.1,30.35,North,349,0.0,0.0,68,0.00,,---,0.00,VWS V14.00,2013-02-02 17:44:00,
2013-02-02 09:50:00,35.0,25.3,30.34,North,349,0.0,0.0,68,0.00,,---,0.00,VWS V14.00,2013-02-02 17:50:00,
2013-02-02 09:55:00,35.1,25.1,30.35,North,349,0.0,0.0,66,0.00,,---,0.00,VWS V14.00,2013-02-02 17:55:00,
2013-02-02 10:00:00,35.4,25.7,30.35,North,350,0.0,0.0,68,0.00,,---,0.00,VWS V14.00,2013-02-02 18:00:00,
2013-02-02 10:05:00,35.7,26.0,30.35,North,350,0.0,0.0,68,0.00,,---,0.00,VWS V14.00,2013-02-02 18:05:00,
2013-02-02 10:15:00,36.1,25.3,30.35,North,349,0.0,0.0,64,0.00,,---,0.00,VWS V14.00,2013-02-02 18:15:00,
2013-02-02 10:20:00,36.2,25.4,30.35,North,350,0.0,0.0,64,0.00,,---,0.00,VWS V14.00,2013-02-02 18:20:00,
2013-02-02 10:25:00,36.0,25.2,30.35,North,350,0.0,0.0,64,0.00,,---,0.00,VWS V14.00,2013-02-02 18:25:00,
2013-02-02 10:30:00,36.1,25.7,30.35,North,350,0.0,0.0,66,0.00,,---,0.00,VWS V14.00,2013-02-02 18:30:00,
2013-02-02 10:35:00,36.2,25.4,30.35,North,349,0.0,0.0,64,0.00,,---,0.00,VWS V14.00,2013-02-02 18:35:00,
2013-02-02 10:45:00,36.3,25.5,30.35,North,350,0.0,0.0,64,0.00,,---,0.00,VWS V14.00,2013-02-02 18:45:00,
2013-02-02 10:50:00,36.2,25.8,30.35,North,350,0.0,0.0,66,0.00,,---,0.00,VWS V14.00,2013-02-02 18:50:00,
2013-02-02 10:55:00,36.1,25.7,30.34,North,350,0.0,0.0,66,0.00,,---,0.00,VWS V14.00,2013-02-02 18:55:00,
2013-02-02 11:00:00,36.0,25.6,30.34,North,350,0.0,0.0,66,0.00,,---,0.00,VWS V14.00,2013-02-02 19:00:00,
2013-02-02 11:05:00,36.1,25.7,30.34,North,349,0.0,0.0,66,0.00,,---,0.00,VWS V14.00,2013-02-02 19:05:00,
2013-02-02 11:10:00,36.2,25.4,30.34,North,350,0.0,0.0,64,0.00,,---,0.00,VWS V14.00,2013-02-02 19:10:00,
2013-02-02 11:20:00,36.3,25.1,30.34,North,350,0.0,0.0,64,0.00,,---,0.00,VWS V14.00,2013-02-02 19:20:00,
2013-02-02 11:25:00,36.5,25.3,30.33,North,350,0.0,0.0,64,0.00,,---,0.00,VWS V14.00,2013-02-02 19:25:00,
2013-02-02 11:30:00,36.6,25.4,30.33,North,349,0.0,0.0,64,0.00,,---,0.00,VWS V14.00,2013-02-02 19:30:00,
2013-02-02 11:35:00,36.7,25.5,30.33,North,350,0.0,0.0,64,0.00,,---,0.00,VWS V14.00,2013-02-02 19:35:00,
2013-02-02 11:40:00,36.9,25.3,30.33,North,350,0.0,0.0,62,0.00,,---,0.00,VWS V14.00,2013-02-02 19:40:00,
2013-02-02 11:50:00,37.4,25.4,30.33,North,350,0.0,0.0,62,0.00,,---,0.00,VWS V14.00,2013-02-02 19:50:00,
2013-02-02 11:55:00,37.8,25.8,30.32,North,350,0.0,0.0,62,0.00,,---,0.00,VWS V14.00,2013-02-02 19:55:00,
2013-02-02 12:00:00,38.2,25.8,30.32,North,350,0.0,0.0,60,0.00,,---,0.00,VWS V14.00,2013-02-02 20:00:00,
2013-02-02 12:05:00,38.6,26.1,30.32,North,349,0.0,0.0,60,0.00,,---,0.00,VWS V14.00,2013-02-02 20:05:00,
2013-02-02 12:10:00,39.2,26.3,30.32,North,350,0.0,0.0,60,0.00,,---,0.00,VWS V14.00,2013-02-02 20:10:00,
2013-02-02 12:15:00,39.7,25.9,30.31,North,350,0.0,0.0,58,0.00,,---,0.00,VWS V14.00,2013-02-02 20:15:00,
2013-02-02 12:20:00,40.1,25.5,30.31,North,350,0.0,0.0,56,0.00,,---,0.00,VWS V14.00,2013-02-02 20:20:00,
2013-02-02 12:25:00,40.3,25.2,30.31,North,350,0.0,0.0,54,0.00,,---,0.00,VWS V14.00,2013-02-02 20:25:00,
2013-02-02 12:30:00,40.8,25.7,30.31,North,350,0.0,0.0,54,0.00,,---,0.00,VWS V14.00,2013-02-02 20:30:00,
2013-02-02 12:35:00,40.9,26.2,30.31,North,350,0.0,0.0,56,0.00,,---,0.00,VWS V14.00,2013-02-02 20:35:00,
2013-02-02 12:40:00,40.4,26.2,30.30,North,349,0.0,5.0,56,0.00,,---,0.00,VWS V14.00,2013-02-02 20:40:00,
2013-02-02 12:45:00,40.1,25.9,30.30,North,349,0.0,2.0,56,0.00,,---,0.00,VWS V14.00,2013-02-02 20:45:00,
2013-02-02 12:50:00,40.0,26.2,30.30,North,350,0.0,0.0,58,0.00,,---,0.00,VWS V14.00,2013-02-02 20:50:00,
2013-02-02 12:55:00,40.0,25.8,30.30,North,350,0.0,0.0,56,0.00,,---,0.00,VWS V14.00,2013-02-02 20:55:00,
2013-02-02 13:00:00,40.1,25.9,30.30,North,350,0.0,0.0,56,0.00,,---,0.00,VWS V14.00,2013-02-02 21:00:00,
2013-02-02 13:05:00,40.3,25.6,30.30,North,350,0.0,0.0,56,0.00,,---,0.00,VWS V14.00,2013-02-02 21:05:00,
2013-02-02 13:10:00,40.5,25.0,30.30,North,350,0.0,0.0,54,0.00,,---,0.00,VWS V14.00,2013-02-02 21:10:00,
2013-02-02 13:20:00,41.4,24.4,30.30,North,349,0.0,0.0,50,0.00,,---,0.00,VWS V14.00,2013-02-02 21:20:00,
2013-02-02 13:25:00,41.8,24.3,30.30,North,350,0.0,0.0,50,0.00,,---,0.00,VWS V14.00,2013-02-02 21:25:00,
2013-02-02 13:30:00,41.8,24.3,30.29,North,350,0.0,0.0,50,0.00,,---,0.00,VWS V14.00,2013-02-02 21:30:00,
2013-02-02 13:35:00,41.9,23.4,30.29,North,350,0.0,0.0,48,0.00,,---,0.00,VWS V14.00,2013-02-02 21:35:00,
2013-02-02 13:40:00,42.0,23.0,30.29,North,349,0.0,0.0,46,0.00,,---,0.00,VWS V14.00,2013-02-02 21:40:00,
2013-02-02 13:45:00,42.0,24.0,30.29,North,350,0.0,0.0,48,0.00,,---,0.00,VWS V14.00,2013-02-02 21:45:00,
2013-02-02 13:55:00,42.1,24.6,30.29,North,349,0.0,0.0,50,0.00,,---,0.00,VWS V14.00,2013-02-02 21:55:00,
2013-02-02 14:00:00,42.1,25.5,30.28,North,349,0.0,0.0,52,0.00,,---,0.00,VWS V14.00,2013-02-02 22:00:00,
2013-02-02 14:05:00,42.1,25.5,30.28,North,350,0.0,0.0,52,0.00,,---,0.00,VWS V14.00,2013-02-02 22:05:00,
2013-02-02 14:10:00,42.2,25.6,30.29,North,350,0.0,0.0,52,0.00,,---,0.00,VWS V14.00,2013-02-02 22:10:00,
2013-02-02 14:15:00,42.1,25.1,30.29,North,350,0.0,0.0,50,0.00,,---,0.00,VWS V14.00,2013-02-02 22:15:00,
2013-02-02 14:20:00,42.0,24.5,30.28,North,349,0.0,0.0,50,0.00,,---,0.00,VWS V14.00,2013-02-02 22:20:00,
2013-02-02 14:25:00,41.9,24.9,30.28,North,350,0.0,0.0,50,0.00,,---,0.00,VWS V14.00,2013-02-02 22:25:00,
2013-02-02 14:30:00,42.0,25.4,30.28,North,350,0.0,0.0,52,0.00,,---,0.00,VWS V14.00,2013-02-02 22:30:00,
2013-02-02 14:35:00,42.0,25.4,30.28,North,349,0.0,0.0,52,0.00,,---,0.00,VWS V14.00,2013-02-02 22:35:00,
2013-02-02 14:40:00,42.1,25.5,30.28,North,350,0.0,0.0,52,0.00,,---,0.00,VWS V14.00,2013-02-02 22:40:00,
2013-02-02 14:45:00,42.3,26.2,30.28,North,350,0.0,0.0,52,0.00,,---,0.00,VWS V14.00,2013-02-02 22:45:00,
2013-02-02 14:50:00,42.3,25.7,30.28,North,350,0.0,0.0,52,0.00,,---,0.00,VWS V14.00,2013-02-02 22:50:00,
2013-02-02 14:55:00,42.3,26.2,30.28,North,349,0.0,0.0,52,0.00,,---,0.00,VWS V14.00,2013-02-02 22:55:00,
2013-02-02 15:00:00,42.3,26.6,30.28,North,350,0.0,0.0,54,0.00,,---,0.00,VWS V14.00,2013-02-02 23:00:00,
2013-02-02 15:05:00,42.2,26.5,30.28,North,350,0.0,0.0,54,0.00,,---,0.00,VWS V14.00,2013-02-02 23:05:00,
2013-02-02 15:10:00,42.3,27.1,30.28,North,350,0.0,0.0,54,0.00,,---,0.00,VWS V14.00,2013-02-02 23:10:00,
2013-02-02 15:15:00,42.3,27.5,30.28,North,350,0.0,0.0,56,0.00,,---,0.00,VWS V14.00,2013-02-02 23:15:00,
2013-02-02 15:20:00,42.3,28.0,30.28,North,350,0.0,0.0,56,0.00,,---,0.00,VWS V14.00,2013-02-02 23:20:00,
2013-02-02 15:25:00,42.4,28.5,30.28,North,350,0.0,0.0,58,0.00,,---,0.00,VWS V14.00,2013-02-02 23:25:00,
2013-02-02 15:30:00,42.4,27.6,30.28,North,350,0.0,0.0,56,0.00,,---,0.00,VWS V14.00,2013-02-02 23:30:00,
2013-02-02 15:35:00,42.3,28.0,30.28,North,350,0.0,0.0,56,0.00,,---,0.00,VWS V14.00,2013-02-02 23:35:00,
2013-02-02 15:40:00,42.2,28.3,30.28,North,350,0.0,0.0,58,0.00,,---,0.00,VWS V14.00,2013-02-02 23:40:00,
2013-02-02 15:45:00,42.1,27.8,30.28,North,350,0.0,0.0,56,0.00,,---,0.00,VWS V14.00,2013-02-02 23:45:00,
2013-02-02 15:50:00,42.0,28.1,30.28,North,350,0.0,0.0,58,0.00,,---,0.00,VWS V14.00,2013-02-02 23:50:00,
2013-02-02 15:55:00,42.0,28.5,30.28,North,350,0.0,0.0,58,0.00,,---,0.00,VWS V14.00,2013-02-02 23:55:00,
2013-02-02 16:00:00,42.0,28.1,30.28,North,350,0.0,0.0,58,0.00,,---,0.00,VWS V14.00,2013-02-03 00:00:00,
2013-02-02 16:05:00,42.0,28.5,30.28,North,350,0.0,0.0,58,0.00,,---,0.00,VWS V14.00,2013-02-03 00:05:00,
2013-02-02 16:10:00,41.8,28.3,30.28,North,349,0.0,0.0,58,0.00,,---,0.00,VWS V14.00,2013-02-03 00:10:00,
2013-02-02 16:19:00,41.5,28.9,30.28,North,350,0.0,0.0,60,0.00,,---,0.00,VWS V14.00,2013-02-03 00:19:00,
2013-02-02 16:25:00,41.3,28.7,30.28,North,350,0.0,0.0,60,0.00,,---,0.00,VWS V14.00,2013-02-03 00:25:00,
2013-02-02 16:30:00,41.1,28.9,30.28,North,349,0.0,0.0,62,0.00,,---,0.00,VWS V14.00,2013-02-03 00:30:00,
2013-02-02 16:35:00,41.1,28.5,30.28,North,350,0.0,0.0,60,0.00,,---,0.00,VWS V14.00,2013-02-03 00:35:00,
2013-02-02 16:40:00,41.0,28.8,30.28,North,349,0.0,0.0,62,0.00,,---,0.00,VWS V14.00,2013-02-03 00:40:00,
2013-02-02 16:45:00,40.8,28.6,30.28,North,349,0.0,0.0,62,0.00,,---,0.00,VWS V14.00,2013-02-03 00:45:00,
2013-02-02 16:55:00,40.4,29.0,30.28,North,350,0.0,0.0,64,0.00,,---,0.00,VWS V14.00,2013-02-03 00:55:00,
2013-02-02 17:00:00,40.2,28.8,30.28,North,350,0.0,0.0,64,0.00,,---,0.00,VWS V14.00,2013-02-03 01:00:00,
2013-02-02 17:05:00,39.9,28.9,30.28,North,349,0.0,0.0,64,0.00,,---,0.00,VWS V14.00,2013-02-03 01:05:00,
2013-02-02 17:15:00,39.4,28.4,30.28,North,350,0.0,0.0,64,0.00,,---,0.00,VWS V14.00,2013-02-03 01:15:00,
2013-02-02 17:20:00,39.3,28.7,30.28,North,350,0.0,0.0,66,0.00,,---,0.00,VWS V14.00,2013-02-03 01:20:00,
2013-02-02 17:25:00,39.2,28.6,30.28,North,349,0.0,0.0,66,0.00,,---,0.00,VWS V14.00,2013-02-03 01:25:00,
2013-02-02 17:30:00,39.1,28.5,30.28,North,350,0.0,0.0,66,0.00,,---,0.00,VWS V14.00,2013-02-03 01:30:00,
2013-02-02 17:35:00,39.1,28.2,30.28,North,350,0.0,0.0,64,0.00,,---,0.00,VWS V14.00,2013-02-03 01:35:00,
2013-02-02 17:40:00,39.2,27.9,30.28,North,350,0.0,0.0,64,0.00,,---,0.00,VWS V14.00,2013-02-03 01:40:00,
2013-02-02 17:50:00,39.7,27.6,30.28,North,350,0.0,0.0,62,0.00,,---,0.00,VWS V14.00,2013-02-03 01:50:00,
2013-02-02 17:55:00,39.7,27.6,30.28,North,350,0.0,0.0,62,0.00,,---,0.00,VWS V14.00,2013-02-03 01:55:00,
2013-02-02 18:00:00,39.4,27.7,30.28,North,349,0.0,0.0,62,0.00,,---,0.00,VWS V14.00,2013-02-03 02:00:00,
2013-02-02 18:05:00,39.0,27.7,30.28,North,350,0.0,0.0,64,0.00,,---,0.00,VWS V14.00,2013-02-03 02:05:00,
2013-02-02 18:10:00,38.6,27.7,30.28,North,350,0.0,0.0,64,0.00,,---,0.00,VWS V14.00,2013-02-03 02:10:00,
2013-02-02 18:15:00,38.8,27.9,30.28,North,350,0.0,0.0,64,0.00,,---,0.00,VWS V14.00,2013-02-03 02:15:00,
2013-02-02 18:20:00,38.9,28.3,30.28,North,350,0.0,0.0,66,0.00,,---,0.00,VWS V14.00,2013-02-03 02:20:00,
2013-02-02 18:25:00,38.8,28.2,30.28,North,350,0.0,0.0,66,0.00,,---,0.00,VWS V14.00,2013-02-03 02:25:00,
2013-02-02 18:30:00,38.8,28.2,30.29,North,350,0.0,0.0,66,0.00,,---,0.00,VWS V14.00,2013-02-03 02:30:00,
2013-02-02 18:35:00,38.7,28.1,30.28,North,350,0.0,0.0,66,0.00,,---,0.00,VWS V14.00,2013-02-03 02:35:00,
2013-02-02 18:40:00,38.6,28.0,30.28,North,349,0.0,0.0,66,0.00,,---,0.00,VWS V14.00,2013-02-03 02:40:00,
2013-02-02 18:45:00,38.6,27.7,30.29,North,350,0.0,0.0,64,0.00,,---,0.00,VWS V14.00,2013-02-03 02:45:00,
2013-02-02 18:50:00,38.7,27.8,30.28,North,350,0.0,0.0,64,0.00,,---,0.00,VWS V14.00,2013-02-03 02:50:00,
2013-02-02 18:55:00,38.7,27.8,30.28,North,349,0.0,0.0,64,0.00,,---,0.00,VWS V14.00,2013-02-03 02:55:00,
2013-02-02 19:00:00,38.7,27.8,30.29,North,350,0.0,0.0,64,0.00,,---,0.00,VWS V14.00,2013-02-03 03:00:00,
2013-02-02 19:05:00,38.8,27.5,30.29,North,350,0.0,0.0,64,0.00,,---,0.00,VWS V14.00,2013-02-03 03:05:00,
2013-02-02 19:15:00,38.3,27.4,30.29,North,349,0.0,0.0,64,0.00,,---,0.00,VWS V14.00,2013-02-03 03:15:00,
2013-02-02 19:25:00,36.1,27.1,30.29,North,350,0.0,1.0,70,0.00,,---,0.00,VWS V14.00,2013-02-03 03:25:00,
2013-02-02 19:30:00,35.6,27.3,30.28,North,350,0.0,0.0,72,0.00,,---,0.00,VWS V14.00,2013-02-03 03:30:00,
2013-02-02 19:40:00,35.4,27.5,30.28,North,350,0.0,0.0,72,0.00,,---,0.00,VWS V14.00,2013-02-03 03:40:00,
2013-02-02 19:45:00,35.9,27.9,30.28,North,350,0.0,0.0,72,0.00,,---,0.00,VWS V14.00,2013-02-03 03:45:00,
2013-02-02 19:55:00,36.1,27.5,30.28,North,349,0.0,0.0,70,0.00,,---,0.00,VWS V14.00,2013-02-03 03:55:00,
2013-02-02 20:00:00,36.6,27.6,30.28,North,350,0.0,0.0,70,0.00,,---,0.00,VWS V14.00,2013-02-03 04:00:00,
2013-02-02 20:05:00,37.5,27.7,30.28,North,350,0.0,0.0,68,0.00,,---,0.00,VWS V14.00,2013-02-03 04:05:00,
2013-02-02 20:10:00,37.9,27.8,30.28,North,349,0.0,0.0,66,0.00,,---,0.00,VWS V14.00,2013-02-03 04:10:00,
2013-02-02 20:15:00,38.0,27.9,30.28,North,349,0.0,0.0,66,0.00,,---,0.00,VWS V14.00,2013-02-03 04:15:00,
2013-02-02 20:20:00,38.0,27.5,30.28,North,350,0.0,0.0,66,0.00,,---,0.00,VWS V14.00,2013-02-03 04:20:00,
2013-02-02 20:25:00,38.0,27.5,30.28,North,350,0.0,0.0,66,0.00,,---,0.00,VWS V14.00,2013-02-03 04:25:00,
2013-02-02 20:30:00,37.7,27.2,30.28,North,349,0.0,0.0,66,0.00,,---,0.00,VWS V14.00,2013-02-03 04:30:00,
2013-02-02 20:35:00,37.2,27.1,30.28,North,350,0.0,0.0,66,0.00,,---,0.00,VWS V14.00,2013-02-03 04:35:00,
2013-02-02 20:40:00,37.0,27.3,30.28,North,350,0.0,0.0,68,0.00,,---,0.00,VWS V14.00,2013-02-03 04:40:00,
2013-02-02 20:45:00,35.8,26.5,30.28,North,350,0.0,0.0,68,0.00,,---,0.00,VWS V14.00,2013-02-03 04:45:00,
2013-02-02 20:50:00,34.4,26.5,30.28,North,350,0.0,0.0,72,0.00,,---,0.00,VWS V14.00,2013-02-03 04:50:00,
2013-02-02 20:55:00,34.4,26.8,30.28,North,350,0.0,0.0,74,0.00,,---,0.00,VWS V14.00,2013-02-03 04:55:00,
2013-02-02 21:00:00,34.4,27.1,30.28,North,350,0.0,0.0,74,0.00,,---,0.00,VWS V14.00,2013-02-03 05:00:00,
2013-02-02 21:05:00,34.4,27.1,30.28,North,350,0.0,0.0,74,0.00,,---,0.00,VWS V14.00,2013-02-03 05:05:00,
2013-02-02 21:10:00,35.2,27.3,30.28,North,350,0.0,0.0,72,0.00,,---,0.00,VWS V14.00,2013-02-03 05:10:00,
2013-02-02 21:15:00,35.4,27.1,30.28,North,350,0.0,0.0,72,0.00,,---,0.00,VWS V14.00,2013-02-03 05:15:00,
2013-02-02 21:25:00,35.6,27.3,30.28,North,350,0.0,0.0,72,0.00,,---,0.00,VWS V14.00,2013-02-03 05:25:00,
2013-02-02 21:29:00,36.0,27.4,30.28,North,349,0.0,0.0,70,0.00,,---,0.00,VWS V14.00,2013-02-03 05:29:00,
2013-02-02 21:35:00,36.1,27.1,30.28,North,350,0.0,0.0,70,0.00,,---,0.00,VWS V14.00,2013-02-03 05:35:00,
2013-02-02 21:40:00,36.0,27.0,30.28,North,350,0.0,0.0,70,0.00,,---,0.00,VWS V14.00,2013-02-03 05:40:00,
2013-02-02 21:44:00,36.4,27.4,30.28,North,349,0.0,0.0,70,0.00,,---,0.00,VWS V14.00,2013-02-03 05:44:00,
2013-02-02 21:54:00,36.1,26.8,30.28,North,350,0.0,0.0,68,0.00,,---,0.00,VWS V14.00,2013-02-03 05:54:00,
2013-02-02 21:59:00,35.9,26.9,30.28,North,350,0.0,0.0,70,0.00,,---,0.00,VWS V14.00,2013-02-03 05:59:00,
2013-02-02 22:10:00,34.5,25.9,30.28,North,350,0.0,2.0,70,0.00,,---,0.00,VWS V14.00,2013-02-03 06:10:00,
2013-02-02 22:15:00,33.1,25.6,30.27,North,350,0.0,1.0,74,0.00,,---,0.00,VWS V14.00,2013-02-03 06:15:00,
2013-02-02 22:20:00,33.0,26.1,30.27,North,349,0.0,0.0,76,0.00,,---,0.00,VWS V14.00,2013-02-03 06:20:00,
2013-02-02 22:25:00,33.2,26.3,30.27,North,350,0.0,0.0,76,0.00,,---,0.00,VWS V14.00,2013-02-03 06:25:00,
2013-02-02 22:30:00,33.1,26.2,30.27,North,350,0.0,0.0,76,0.00,,---,0.00,VWS V14.00,2013-02-03 06:30:00,
2013-02-02 22:34:00,33.1,26.5,30.27,North,350,0.0,0.0,76,0.00,,---,0.00,VWS V14.00,2013-02-03 06:34:00,
2013-02-02 22:40:00,33.1,26.5,30.27,North,349,0.0,0.0,76,0.00,,---,0.00,VWS V14.00,2013-02-03 06:40:00,
2013-02-02 22:44:00,33.0,26.4,30.27,North,350,0.0,0.0,76,0.00,,---,0.00,VWS V14.00,2013-02-03 06:44:00,
2013-02-02 22:50:00,32.9,26.3,30.27,North,350,0.0,0.0,76,0.00,,---,0.00,VWS V14.00,2013-02-03 06:50:00,
2013-02-02 22:54:00,32.7,25.8,30.26,North,349,0.0,0.0,76,0.00,,---,0.00,VWS V14.00,2013-02-03 06:54:00,
2013-02-02 22:59:00,32.5,26.0,30.26,North,349,0.0,0.0,76,0.00,,---,0.00,VWS V14.00,2013-02-03 06:59:00,
2013-02-02 23:04:00,32.5,26.0,30.26,North,349,0.0,0.0,76,0.00,,---,0.00,VWS V14.00,2013-02-03 07:04:00,
2013-02-02 23:09:00,32.6,26.0,30.26,North,350,0.0,0.0,76,0.00,,---,0.00,VWS V14.00,2013-02-03 07:09:00,
2013-02-02 23:14:00,32.8,25.9,30.26,North,350,0.0,0.0,76,0.00,,---,0.00,VWS V14.00,2013-02-03 07:14:00,
2013-02-02 23:19:00,32.1,25.2,30.26,North,349,0.0,1.0,76,0.00,,---,0.00,VWS V14.00,2013-02-03 07:19:00,
2013-02-02 23:24:00,31.4,25.2,30.26,North,350,0.0,0.0,78,0.00,,---,0.00,VWS V14.00,2013-02-03 07:24:00,
2013-02-02 23:29:00,31.3,25.4,30.26,North,350,0.0,0.0,78,0.00,,---,0.00,VWS V14.00,2013-02-03 07:29:00,
2013-02-02 23:35:00,31.5,25.6,30.26,North,349,0.0,0.0,78,0.00,,---,0.00,VWS V14.00,2013-02-03 07:35:00,
2013-02-02 23:39:00,31.9,26.0,30.26,North,349,0.0,0.0,78,0.00,,---,0.00,VWS V14.00,2013-02-03 07:39:00,
2013-02-02 23:45:00,32.5,26.3,30.26,North,350,0.0,0.0,78,0.00,,---,0.00,VWS V14.00,2013-02-03 07:45:00,
2013-02-02 23:49:00,33.5,26.9,30.26,North,350,0.0,0.0,76,0.00,,---,0.00,VWS V14.00,2013-02-03 07:49:00,
2013-02-02 23:55:00,34.2,27.0,30.26,North,349,0.0,0.0,74,0.00,,---,0.00,VWS V14.00,2013-02-03 07:55:00,
2013-02-02 23:59:00,34.4,26.5,30.26,North,349,0.0,0.0,72,0.00,,---,0.00,VWS V14.00,2013-02-03 07:59:00,